7 * 24
多渠道服务支持
STEP CUBE LAB-II是韩国(KR)于2022年6月21日成功发射的微小卫星,国际卫星标识符为2022-065D,运行在倾角约98.5度的近地轨道。它是韩国自主火箭“世界号”此次发射任务搭载的多颗试验卫星之一,承载着韩国航天领域技术验证与空间科学探索的任务,是韩国推进自主航天能力建设的小型实践项目,助力韩国在微小卫星技术领域积累研发与应用经验。
韩国
(KR)
| 数据来源 | 国际轨道数据 |
| 星历时间: | 2026-09-14T05:19:26+0800 7小时前 查看轨道信息 |
| 半长轴: | 7060.298km |
| 偏心率: | 0.0009819 |
| 轨道倾角: | 98.236° |
| 近地点辐角 | 104.679° |
| 升交点赤经 | 40.587° |
| 平近点角 | 255.550° |
| 近地点: | 675.228km |
| 远地点: | 689.094km |
| 周期: | 98.400分钟 |
| 每日圈数: | 14.634175 |